DELTA 1 DEB, 7186

Orbit data source: Space-Track

DELTA 1 DEB, 7186 is space debris in SSO originally from a launch on Tue, 06 Nov 1973 UTC launched from the Air Force Western Test Range (AFWTR). Debris objects in space refer to the collection of defunct objects orbiting the Earth. Examples of debris include non-operational satellites, rocket bodies, and fragments generated from explosions, collisions, or faulty payload assembly.

Loading next visibility...
Identifier
7186, 1973-086EX
Orbit
SSO
Country
Flag of USUS
Related business
Manufacturer
Unknown
Mission
Spacecraft
Bus & Motor
Unknown
Mass
Unknown
Launch date (UTC)
1973-11-06 (53 years ago)
Launch vehicle
Unknown
Launch site
Air Force Western Test Range (AFWTR)
Object type
Payload
Rocket body
Debris
Shape & HBR
Unknown shape, 0.1 m
Radar Cross Section
Medium (>0.1 m² and <1 m²)

Expand to show TLE details & history
Last TLE update: 11 hours ago

TLE from 11 hours ago
0 DELTA 1 DEB
1 07186U 73086EX  26263.38687800 -.00000243  00000-0 -54804-3 0  9990
2 07186 101.8027  77.5898 0224415   8.8645 104.3004 13.01785892490780
Epoch: 2026-09-20T09:17Z
TLE epoch observation values (Epoch: 2026-09-20T09:17:06.259Z)
Latitude
62.03381°
Longitude
142.08557°
Altitude
1,311.456 km
Speed
7.185 km/s
True Right ascension
18h 42m 34s
True Declination
61° 54' 05"
Sunlit
Object was in daylight at epoch
Visualization orbit readout
Latitude
Unknown
Longitude
Unknown
Altitude
Unknown
Speed
Unknown
Apparent Right ascension
Unknown
Apparent Declination
Unknown
Sunlit
N/A
Visualization observer readout
Local Sidereal Time
12:54:19
Azimuth
Unknown
Elevation
Unknown
Doppler factor
Unknown
Orbital elements
Apogee altitude
1,423.826 km
Perigee altitude
1,081.337 km
Semi-major axis
7,630.719 km
Eccentricity
0.02244
Inclination
101.8027°
RAAN
77.5898°
Arg. of periapsis
8.8645°
True anomaly
106.7744°
Mean anomaly
104.3004°
Eccentric anomaly
105.5392°
Mean motion
3.25608 °/min
Orbital period
110.56 mins
BSTAR
-0.00054804
Loading maneuver chart data...
Computing Atmospheric mass density...
Loading historical data...
Loading historical data...
Loading historical data...
Loading historical data...
Loading historical data...
Loading historical data...
Loading historical data...

Documentation

Showing up to 5 results
|